Regional Weather Roundup
Issued by NWS Cleveland, OH

Home | Current Version | Previous Version | Graphics & Text | Print | Product List | Glossary On
Versions: 1 2 3 4 5 6 7 8 9 10 11 12 13 14 15 16 17 18 19 20 21 22 23 24 25 26 27 28 29 30 31 32 33 34 35 36 37 38 39 40 41 42 43 44 45 46 47 48 49 50
087
ASUS41 KCLE 240202
RWRCLE
OHIO REGIONAL WEATHER ROUNDUP
NATIONAL WEATHER SERVICE CLEVELAND, OH
1000 PM EDT MON MAY 23 2016

NOTE: "FAIR" INDICATES FEW OR NO CLOUDS BELOW 12,000 FEET WITH NO
SIGNIFICANT WEATHER AND/OR OBSTRUCTIONS TO VISIBILITY.

OHZ001>008-015>018-024>027-034-035-043-044-240300-
   NORTHWEST OHIO

CITY           SKY/WX    TMP DP  RH WIND       PRES   REMARKS
DEFIANCE       NOT AVBL
FINDLAY        CLEAR     65  44  46 S5        30.00R
TOLEDO EXPRESS CLEAR     61  46  57 SE3       30.01R
TOLEDO EXEC    CLEAR     63  48  58 SE6       30.01R
LIMA           CLEAR     63  47  55 E5        30.01R
$$

OHZ009>014-019>023-028>033-038-089-240300-
   NORTHEAST OHIO

CITY           SKY/WX    TMP DP  RH WIND       PRES   REMARKS
CLE-HOPKINS    CLEAR     66  45  46 E5        30.04R
CLE-LAKEFRONT  CLEAR     64  50  60 CALM      30.01S
CUY CO. ARPT   CLEAR     59  50  72 CALM      30.03R
LORAIN-ELYRIA  CLEAR     60  47  61 CALM      30.02S HAZE
ASHTABULA      CLEAR     56  46  69 CALM      30.03R
AKRON-CANTON   CLEAR     63  45  51 N7        30.03R
WOOSTER        CLEAR     58  49  72 CALM      30.04R
MANSFIELD      CLEAR     62  49  62 NE3       30.04R
YOUNGSTOWN     CLEAR     62  46  55 N7        30.02R
$$

OHZ042-051>053-060>062-070>072-077>081-240300-
  SOUTHWEST OHIO

CITY           SKY/WX    TMP DP  RH WIND       PRES   REMARKS
CINC-COVINGTON CLEAR     65  48  54 S3        30.02S
CINC-LUNKEN    CLEAR     61  54  77 CALM      30.02R
HAMILTON       CLEAR     59  53  80 CALM      30.03R
DAYTON         CLEAR     67  46  47 S5        30.04R
WRIGHT-PAT AFB NOT AVBL
DAYTON GENERAL CLEAR     65  46  50 CALM      30.02R
WILMINGTON     CLEAR     62  53  72 CALM      30.03R
$$

OHZ036-037-039>041-045>050-054>059-063>069-073>076-082>088-240300-
  CENTRAL AND SOUTHEAST OHIO

CITY           SKY/WX    TMP DP  RH WIND       PRES   REMARKS
COLUMBUS       CLEAR     68  49  50 CALM      30.02R
OSU AIRPORT    CLEAR     64  49  57 CALM      30.02R
BOLTON FIELD   NOT AVBL
RICKENBACK AFB NOT AVBL
NEWARK         CLEAR     61  54  77 CALM      30.02R
MARION         CLEAR     64  51  62 SW3       30.03R
LANCASTER      CLEAR     58  52  80 CALM      30.03R
ZANESVILLE     CLEAR     62  53  72 CALM      30.02R
NEW PHILLY     CLEAR     65  54  67 CALM      30.02R
$$




USA.gov is the U.S. government's official web portal to all federal, state and local government web resources and services.